QPF
0.00 0.00 0.00 0.00 0.00 0.00 0.00 0.00 0.00 0.00 0.00 0.00 0.00 0.00 0.00 0.00 0.01 0.02 0.02 0.03 0.02 0.02 0.03 0.09 0.12 0.15 0.16 0.15 0.19 0.28 0.24 0.17 0.07 0.00 0.00 0.00 0.00 0.00 0.00 0.00 0.00 0.00 0.00
0.00 0.00 0.00 0.00 0.00 0.00 0.00 0.00 0.00 0.00 0.00 0.00 0.00 0.00 0.00 0.00 0.01 0.02 0.03 0.03 0.01 0.03 0.08 0.07 0.05 0.06 0.09 0.09 0.15 0.19 0.22 0.22 0.20 0.09 0.06 0.03 0.02 0.00 0.00 0.00 0.00 0.00 0.00
0.00 0.00 0.00 0.00 0.00 0.00 0.00 0.00 0.00 0.00 0.00 0.00 0.00 0.00 0.00 0.00 0.00 0.01 0.04 0.06 0.04 0.04 0.09 0.11 0.07 0.03 0.02 0.02 0.03 0.06 0.11 0.16 0.16 0.11 0.09 0.11 0.08 0.02 0.00 0.00 0.00 0.00 0.00
0.00 0.00 0.00 0.00 0.00 0.00 0.00 0.00 0.00 0.00 0.00 0.00 0.00 0.00 0.00 0.00 0.00 0.02 0.02 0.04 0.02 0.00 0.01 0.03 0.03 0.03 0.04 0.04 0.02 0.02 0.08 0.13 0.14 0.18 0.18 0.13 0.05 0.02 0.00 0.00 0.00 0.00 0.00
0.00 0.00 0.00 0.00 0.00 0.00 0.00 0.00 0.00 0.00 0.00 0.00 0.00 0.00 0.01 0.01 0.00 0.01 0.04 0.01 0.00 0.00 0.00 0.00 0.00 0.00 0.00 0.01 0.01 0.02 0.05 0.07 0.12 0.13 0.13 0.09 0.04 0.01 0.00 0.00 0.00 0.00 0.00
0.00 0.00 0.00 0.00 0.00 0.00 0.00 0.00 0.00 0.00 0.00 0.00 0.00 0.02 0.02 0.01 0.00 0.03 0.06 0.02 0.00 0.00 0.00 0.00 0.00 0.00 0.00 0.00 0.00 0.02 0.05 0.07 0.12 0.09 0.07 0.06 0.04 0.01 0.00 0.00 0.00 0.00 0.00
0.00 0.00 0.00 0.00 0.00 0.00 0.00 0.00 0.00 0.00 0.00 0.00 0.00 0.01 0.01 0.01 0.05 0.09 0.11 0.05 0.05 0.06 0.04 0.01 0.00 0.00 0.00 0.00 0.01 0.04 0.06 0.06 0.07 0.06 0.04 0.03 0.01 0.00 0.00 0.00 0.00 0.00 0.00
0.00 0.00 0.00 0.00 0.00 0.00 0.00 0.00 0.00 0.00 0.00 0.00 0.00 0.00 0.00 0.02 0.08 0.14 0.12 0.08 0.07 0.05 0.03 0.01 0.00 0.00 0.00 0.00 0.06 0.09 0.09 0.08 0.06 0.07 0.03 0.01 0.00 0.00 0.00 0.00 0.00 0.00 0.00
0.00 0.00 0.00 0.00 0.00 0.00 0.00 0.00 0.00 0.00 0.00 0.00 0.01 0.01 0.00 0.02 0.10 0.11 0.08 0.09 0.06 0.04 0.04 0.03 0.02 0.00 0.01 0.06 0.09 0.07 0.03 0.02 0.02 0.01 0.00 0.00 0.00 0.00 0.00 0.00 0.00 0.00 0.00
0.00 0.00 0.00 0.00 0.00 0.00 0.00 0.00 0.00 0.00 0.00 0.01 0.02 0.02 0.01 0.00 0.04 0.11 0.09 0.04 0.04 0.05 0.05 0.07 0.08 0.05 0.05 0.06 0.05 0.02 0.00 0.00 0.00 0.00 0.00 0.00 0.00 0.00 0.00 0.00 0.00 0.00 0.00
0.00 0.00 0.00 0.00 0.00 0.00 0.00 0.00 0.00 0.00 0.00 0.00 0.01 0.01 0.01 0.00 0.01 0.04 0.05 0.02 0.01 0.04 0.04 0.06 0.09 0.06 0.06 0.04 0.03 0.01 0.00 0.00 0.00 0.00 0.00 0.00 0.00 0.00 0.00 0.00 0.00 0.00 0.00
0.00 0.00 0.00 0.00 0.00 0.00 0.00 0.00 0.00 0.00 0.00 0.00 0.00 0.00 0.00 0.00 0.00 0.00 0.00 0.00 0.00 0.03 0.06 0.11 0.15 0.02 0.02 0.01 0.00 0.00 0.00 0.00 0.00 0.00 0.00 0.00 0.00 0.00 0.00 0.00 0.00 0.00 0.00
0.00 0.00 0.00 0.00 0.00 0.00 0.00 0.00 0.00 0.00 0.00 0.00 0.01 0.00 0.00 0.00 0.00 0.00 0.00 0.00 0.01 0.04 0.08 0.10 0.10 0.01 0.00 0.00 0.00 0.00 0.00 0.00 0.00 0.00 0.00 0.00 0.00 0.00 0.00 0.00 0.01 0.01 0.00
0.00 0.00 0.00 0.00 0.00 0.00 0.00 0.00 0.00 0.00 0.00 0.01 0.02 0.01 0.00 0.00 0.00 0.00 0.00 0.01 0.03 0.07 0.10 0.09 0.03 0.00 0.00 0.00 0.00 0.00 0.00 0.00 0.00 0.00 0.00 0.00 0.00 0.00 0.00 0.00 0.00 0.01 0.01
0.00 0.00 0.00 0.00 0.00 0.00 0.00 0.00 0.00 0.00 0.00 0.01 0.02 0.02 0.00 0.00 0.00 0.00 0.01 0.04 0.05 0.09 0.08 0.02 0.00 0.00 0.00 0.00 0.00 0.00 0.00 0.00 0.00 0.00 0.00 0.00 0.00 0.00 0.00 0.00 0.00 0.01 0.00
0.00 0.00 0.00 0.00 0.00 0.00 0.00 0.00 0.00 0.00 0.00 0.00 0.00 0.00 0.00 0.00 0.00 0.01 0.03 0.07 0.07 0.08 0.04 0.00 0.00 0.00 0.00 0.00 0.00 0.00 0.00 0.00 0.00 0.00 0.00 0.00 0.00 0.00 0.00 0.00 0.00 0.01 0.01
0.00 0.00 0.00 0.00 0.00 0.00 0.00 0.00 0.00 0.00 0.00 0.00 0.00 0.00 0.00 0.00 0.00 0.00 0.03 0.08 0.07 0.05 0.01 0.00 0.00 0.00 0.00 0.00 0.00 0.00 0.00 0.00 0.00 0.00 0.00 0.00 0.00 0.00 0.00 0.00 0.00 0.02 0.03
0.00 0.00 0.00 0.00 0.00 0.00 0.00 0.00 0.00 0.00 0.00 0.00 0.00 0.00 0.00 0.00 0.00 0.00 0.01 0.05 0.03 0.02 0.00 0.00 0.00 0.00 0.00 0.00 0.00 0.00 0.00 0.00 0.00 0.00 0.00 0.00 0.00 0.00 0.00 0.00 0.00 0.00 0.01
0.00 0.00 0.00 0.00 0.00 0.00 0.00 0.00 0.00 0.00 0.00 0.00 0.00 0.01 0.00 0.00 0.00 0.00 0.00 0.01 0.02 0.00 0.00 0.00 0.00 0.00 0.00 0.00 0.00 0.00 0.00 0.00 0.00 0.00 0.00 0.00 0.00 0.00 0.00 0.00 0.00 0.00 0.00
0.00 0.00 0.00 0.00 0.00 0.00 0.00 0.00 0.00 0.00 0.00 0.00 0.00 0.00 0.00 0.00 0.00 0.00 0.00 0.00 0.00 0.00 0.00 0.00 0.00 0.00 0.00 0.00 0.00 0.00 0.00 0.00 0.00 0.00 0.00 0.00 0.00 0.00 0.00 0.00 0.00 0.00 0.00
0.00 0.00 0.00 0.00 0.00 0.00 0.00 0.00 0.00 0.00 0.00 0.00 0.00 0.00 0.00 0.00 0.00 0.00 0.00 0.00 0.00 0.00 0.00 0.00 0.00 0.00 0.00 0.00 0.00 0.00 0.00 0.00 0.00 0.00 0.00 0.00 0.00 0.00 0.00 0.00 0.00 0.00 0.00
0.00 0.00 0.00 0.00 0.00 0.00 0.00 0.00 0.00 0.00 0.00 0.00 0.00 0.00 0.00 0.00 0.00 0.00 0.00 0.00 0.00 0.00 0.00 0.00 0.00 0.00 0.00 0.00 0.00 0.00 0.00 0.00 0.00 0.00 0.00 0.00 0.00 0.00 0.00 0.00 0.00 0.00 0.00
0.00 0.00 0.00 0.00 0.00 0.00 0.00 0.00 0.00 0.00 0.00 0.00 0.00 0.00 0.00 0.00 0.00 0.00 0.00 0.00 0.00 0.00 0.00 0.00 0.00 0.00 0.00 0.00 0.00 0.00 0.00 0.00 0.00 0.00 0.00 0.00 0.00 0.00 0.00 0.00 0.00 0.00 0.00
0.00 0.00 0.00 0.00 0.00 0.00 0.00 0.00 0.00 0.00 0.00 0.00 0.00 0.00 0.00 0.00 0.00 0.00 0.00 0.00 0.00 0.00 0.00 0.00 0.00 0.00 0.00 0.00 0.00 0.00 0.00 0.00 0.00 0.00 0.00 0.00 0.00 0.00 0.00 0.00 0.00 0.00 0.00
0.00 0.00 0.00 0.00 0.00 0.00 0.00 0.00 0.00 0.00 0.00 0.00 0.00 0.00 0.00 0.00 0.00 0.00 0.00 0.00 0.00 0.00 0.00 0.00 0.00 0.00 0.00 0.00 0.00 0.00 0.00 0.00 0.00 0.00 0.00 0.00 0.00 0.00 0.00 0.00 0.00 0.00 0.00
0.00 0.00 0.00 0.00 0.00 0.00 0.00 0.00 0.00 0.00 0.00 0.00 0.00 0.00 0.00 0.00 0.00 0.00 0.00 0.00 0.00 0.00 0.00 0.00 0.00 0.00 0.00 0.00 0.00 0.00 0.00 0.00 0.00 0.00 0.00 0.00 0.00 0.00 0.00 0.00 0.00 0.00 0.00
MSLP
1009.47 1009.13 1008.72 1008.26 1007.64 1007.15 1006.79 1006.26 1005.71 1005.32 1005.04 1004.52 1004.15 1003.92 1003.61 1003.50 1003.48 1003.35 1003.01 1002.78 1003.11 1003.23 1003.35 1003.59 1003.52 1003.68 1004.48 1005.33 1005.91 1006.35 1006.70 1006.93 1006.89 1006.39 1006.56 1006.84 1007.07 1007.57 1007.30 1007.76 1007.78 1007.80 1007.83
1008.79 1008.26 1007.61 1006.92 1006.51 1006.28 1006.03 1005.60 1005.30 1004.97 1004.49 1004.14 1003.83 1003.42 1002.94 1002.79 1002.57 1002.44 1002.11 1001.92 1001.90 1002.22 1002.34 1002.76 1002.77 1003.00 1003.54 1004.47 1004.90 1005.10 1006.42 1006.17 1005.72 1006.65 1006.66 1006.65 1006.93 1007.29 1007.14 1007.44 1007.74 1007.45 1007.82
1008.43 1008.01 1007.58 1007.17 1006.70 1006.20 1005.66 1005.09 1004.54 1004.16 1003.78 1003.44 1003.17 1002.88 1002.39 1001.89 1001.67 1001.33 1000.99 1000.69 1000.56 1000.76 1000.91 1001.34 1001.42 1001.85 1002.48 1003.27 1004.18 1004.68 1005.60 1006.31 1005.93 1006.37 1006.43 1006.28 1006.57 1007.10 1007.44 1007.24 1007.37 1007.41 1007.49
1008.44 1008.21 1007.78 1007.22 1006.46 1005.64 1005.12 1004.68 1004.31 1003.57 1002.95 1002.64 1002.22 1001.78 1001.50 1001.05 1000.58 1000.25 999.90 999.46 998.99 998.94 999.23 999.48 1000.08 1000.29 1000.84 1001.65 1002.94 1003.68 1003.68 1003.51 1004.57 1005.67 1006.19 1006.10 1006.24 1006.83 1006.83 1007.12 1007.33 1007.67 1007.31
1008.35 1007.75 1007.12 1006.53 1005.94 1005.15 1004.40 1003.79 1003.26 1002.72 1002.29 1001.91 1001.32 1000.83 1000.36 1000.07 999.49 999.11 998.95 998.25 997.81 997.55 997.67 997.83 998.21 998.71 998.87 999.27 999.81 1001.23 1001.85 1002.77 1003.42 1004.13 1005.19 1005.85 1006.09 1006.66 1006.78 1006.71 1006.93 1007.56 1007.69
1007.70 1006.98 1006.38 1005.75 1005.20 1004.50 1003.72 1003.07 1002.46 1001.91 1001.43 1000.92 1000.22 999.72 999.10 998.94 998.46 998.16 998.04 997.57 996.78 996.45 996.58 996.80 997.07 997.95 998.47 999.03 999.70 999.78 1000.02 1000.83 1001.67 1002.40 1003.91 1005.25 1005.51 1006.02 1006.09 1006.06 1006.81 1007.56 1007.75
1007.28 1006.54 1005.71 1004.97 1004.27 1003.67 1003.06 1002.43 1001.55 1000.81 1000.51 1000.04 999.51 998.69 997.67 997.99 997.75 997.33 997.36 996.79 996.06 996.04 995.91 996.17 996.84 997.36 997.83 998.33 998.87 999.37 999.94 1000.25 1000.86 1001.26 1003.30 1004.19 1004.67 1004.92 1005.20 1005.91 1006.13 1007.38 1007.25
1006.62 1005.81 1004.94 1004.06 1003.28 1002.71 1002.25 1001.63 1000.90 1000.12 999.77 999.30 998.70 997.86 996.87 996.96 996.89 996.70 996.47 996.07 995.75 995.57 995.53 995.76 996.28 996.94 997.34 997.81 998.15 999.08 1000.05 1000.78 1000.92 1001.88 1001.83 1002.80 1003.23 1003.86 1004.24 1004.63 1005.45 1006.41 1006.68
1005.87 1004.92 1003.97 1003.08 1002.17 1001.56 1001.13 1000.71 1000.27 999.76 999.08 998.51 997.86 997.08 996.33 996.06 995.78 995.93 996.13 995.63 995.21 994.96 995.09 995.19 995.60 996.21 996.49 996.93 997.76 999.19 1000.09 1000.30 1000.86 1000.96 1001.17 1001.95 1002.47 1003.13 1003.56 1004.47 1005.53 1006.06 1006.25
1005.24 1004.21 1003.21 1002.17 1001.19 1000.44 1000.09 999.90 999.61 999.15 998.46 997.94 997.06 996.24 995.50 995.11 995.09 995.21 995.48 995.14 994.95 994.80 994.73 994.82 995.52 995.71 996.40 996.64 997.61 998.93 999.72 1000.25 1000.65 1001.26 1001.84 1002.27 1002.83 1003.54 1003.99 1004.12 1004.79 1005.56 1006.11
1004.84 1003.66 1002.42 1001.27 999.99 999.28 999.16 999.08 998.90 998.52 998.05 997.38 996.67 995.86 995.16 994.57 994.45 994.42 994.10 994.16 994.61 994.98 994.64 994.81 995.29 995.33 996.10 996.58 997.00 998.27 999.25 999.91 1000.52 1000.95 1001.58 1002.25 1002.54 1003.37 1004.17 1004.56 1004.32 1004.77 1005.28
1004.34 1003.08 1001.90 1000.83 999.66 998.82 998.66 998.53 998.36 998.02 997.46 996.88 996.17 995.39 994.67 994.18 994.11 993.85 993.51 993.79 993.81 994.29 994.42 994.62 995.13 995.61 996.05 996.88 997.54 998.65 998.99 999.65 1000.57 1001.26 1002.00 1002.52 1002.77 1003.33 1003.62 1003.95 1004.44 1004.47 1004.73
1004.01 1002.74 1001.52 1000.66 999.76 998.90 998.55 998.27 997.97 997.48 997.07 996.43 995.64 994.82 994.15 994.26 994.00 993.30 992.97 993.26 993.73 994.26 994.28 994.37 995.07 995.81 996.60 997.67 998.57 999.08 999.29 1000.32 1001.16 1001.98 1002.63 1002.89 1003.06 1003.02 1003.44 1003.86 1003.75 1004.05 1004.72
1003.81 1002.46 1001.19 1000.51 999.79 999.03 998.49 998.16 997.67 997.28 996.79 996.08 995.09 994.54 994.19 994.23 993.81 993.25 993.14 993.55 993.47 993.76 994.54 995.28 996.14 996.76 996.78 998.52 999.27 999.69 999.97 1000.76 1001.38 1001.91 1002.51 1002.77 1002.82 1003.18 1003.30 1003.09 1003.69 1004.17 1004.95
1003.60 1002.19 1000.98 1000.34 999.58 998.87 998.25 997.80 997.52 997.15 996.74 996.26 995.50 994.72 994.36 994.12 993.53 993.12 993.11 993.35 993.61 994.04 995.21 996.50 997.24 997.28 998.07 998.72 999.58 999.88 1000.35 1000.84 1001.50 1001.84 1002.24 1002.44 1002.85 1003.12 1003.28 1003.30 1003.68 1004.26 1004.77
1003.50 1002.16 1000.88 1000.10 999.32 998.72 998.16 997.52 997.12 997.17 996.55 995.94 995.13 994.83 994.41 994.28 993.74 992.97 992.98 993.20 993.67 994.28 995.89 996.66 996.83 997.08 997.97 998.99 999.82 1000.46 1000.77 1001.09 1001.46 1001.59 1002.14 1002.47 1002.77 1003.10 1003.25 1003.28 1003.49 1003.85 1004.74
1003.56 1002.20 1000.88 1000.01 999.28 998.63 998.01 997.75 997.20 996.73 996.53 995.87 995.06 994.34 994.31 994.44 994.54 993.70 993.01 993.02 993.86 995.33 995.88 996.68 996.81 997.39 998.25 998.99 999.58 999.95 1000.45 1000.68 1001.00 1001.37 1001.64 1002.21 1002.59 1002.67 1002.87 1003.13 1003.51 1003.96 1004.61
1003.50 1002.06 1001.08 999.95 999.36 998.67 997.92 997.51 997.28 997.20 996.75 996.11 995.73 994.91 994.51 994.65 994.68 993.84 993.90 994.88 995.90 996.18 996.22 996.61 996.93 997.76 998.52 999.18 999.80 1000.13 1000.49 1000.73 1000.81 1001.18 1001.47 1001.94 1002.12 1002.41 1002.67 1003.12 1003.55 1003.94 1004.08
1003.88 1002.78 1001.65 1000.11 999.51 998.99 998.25 997.84 997.48 997.32 996.91 996.55 995.91 995.82 995.54 994.91 994.94 994.62 995.01 995.84 995.90 996.37 996.81 996.69 997.08 997.90 998.56 999.12 999.75 1000.09 1000.03 1000.46 1000.84 1001.01 1001.32 1001.71 1001.76 1002.20 1002.76 1002.95 1003.24 1003.45 1003.92
1004.35 1003.52 1002.38 1001.07 1000.01 999.43 998.87 998.42 998.16 997.92 997.65 997.18 997.02 996.75 996.47 996.23 996.16 996.20 996.31 996.51 996.48 996.83 996.83 996.98 997.45 997.79 998.33 998.88 999.60 999.66 999.75 1000.12 1000.96 1000.96 1001.23 1001.63 1001.75 1001.89 1002.17 1002.74 1003.19 1003.81 1004.02
1005.38 1004.38 1003.41 1002.30 1001.52 1000.73 999.85 999.31 998.89 998.62 998.48 998.15 997.64 997.34 997.21 996.95 996.63 996.52 996.49 996.39 996.69 997.17 997.08 997.21 997.68 998.07 998.43 998.66 999.06 999.37 999.80 1000.04 1000.48 1000.88 1001.15 1001.39 1001.61 1001.94 1002.07 1002.58 1003.18 1003.62 1003.33
1006.44 1005.52 1004.56 1003.77 1002.99 1002.09 1001.45 1000.69 1000.00 999.41 999.13 998.86 998.65 997.93 997.44 997.45 997.27 997.04 996.69 996.72 996.77 996.87 997.12 997.36 997.55 997.72 998.33 998.53 998.90 999.27 999.46 1000.05 1000.45 1000.52 1001.03 1001.42 1001.58 1001.92 1002.29 1002.48 1002.84 1002.99 1003.24
1007.72 1006.70 1005.80 1005.04 1004.35 1003.55 1002.63 1002.06 1001.55 1001.01 1000.31 999.34 998.97 998.68 998.53 998.34 997.70 997.25 996.91 996.63 996.81 996.79 996.65 996.50 997.01 997.58 997.67 997.67 997.99 998.58 999.18 999.40 999.69 1000.05 1000.62 1001.09 1001.35 1001.68 1001.92 1002.18 1002.41 1002.68 1002.99
1008.92 1008.12 1007.29 1006.44 1005.67 1004.92 1004.27 1003.47 1002.79 1002.17 1001.68 1000.80 1000.13 999.54 999.09 998.65 998.55 998.33 997.94 997.49 997.08 996.96 996.78 996.89 996.76 996.86 997.11 997.29 997.55 998.15 998.48 998.79 999.06 999.45 999.87 1000.46 1000.94 1001.25 1001.53 1001.79 1001.82 1002.01 1002.35
1009.88 1009.32 1008.68 1007.94 1007.14 1006.40 1005.54 1004.79 1004.09 1003.27 1002.55 1001.99 1001.45 1000.80 1000.04 999.31 998.74 998.24 997.94 997.83 997.70 997.58 997.29 996.87 996.58 996.76 997.15 997.31 997.65 997.64 997.96 998.57 998.52 998.91 999.36 999.88 1000.40 1000.73 1000.85 1001.15 1001.29 1001.37 1001.73
1010.75 1010.26 1009.79 1009.15 1008.53 1007.85 1007.13 1006.28 1005.50 1004.75 1003.95 1003.17 1002.44 1001.67 1001.07 1000.50 999.85 999.02 997.94 997.57 997.31 997.16 996.99 996.83 996.83 996.89 997.06 997.35 997.48 997.42 997.64 998.10 998.15 998.32 998.78 999.29 999.87 1000.08 1000.31 1000.45 1000.62 1000.68 1001.04
Thickness
5605 5605 5605 5605 5606 5607 5606 5607 5609 5610 5610 5612 5613 5615 5619 5621 5622 5626 5634 5643 5645 5650 5656 5656 5659 5663 5667 5664 5659 5663 5666 5666 5666 5680 5689 5687 5689 5686 5695 5687 5690 5691 5691
5601 5602 5605 5605 5603 5600 5597 5595 5594 5594 5595 5594 5594 5595 5600 5604 5608 5611 5617 5626 5633 5637 5642 5646 5652 5658 5664 5659 5660 5662 5657 5663 5670 5663 5668 5678 5680 5680 5686 5686 5685 5686 5684
5587 5584 5583 5582 5580 5579 5580 5577 5576 5574 5574 5573 5573 5573 5577 5585 5591 5597 5606 5614 5624 5631 5636 5642 5650 5653 5658 5658 5651 5648 5647 5646 5655 5653 5658 5667 5673 5673 5674 5681 5680 5681 5679
5573 5568 5566 5565 5566 5567 5564 5560 5555 5553 5552 5550 5551 5556 5560 5566 5574 5583 5592 5605 5617 5626 5632 5641 5646 5652 5656 5654 5646 5646 5651 5659 5657 5641 5650 5656 5663 5665 5672 5671 5674 5670 5675
5561 5560 5558 5555 5551 5551 5549 5543 5539 5534 5531 5528 5532 5535 5542 5548 5558 5570 5579 5595 5607 5617 5626 5635 5647 5652 5657 5657 5656 5652 5652 5650 5650 5646 5649 5649 5653 5656 5660 5665 5669 5664 5665
5553 5552 5548 5543 5537 5534 5530 5525 5519 5516 5515 5515 5520 5526 5534 5538 5547 5557 5566 5581 5598 5609 5615 5624 5638 5643 5648 5649 5649 5653 5657 5653 5652 5652 5647 5642 5648 5652 5656 5665 5664 5657 5658
5543 5540 5537 5532 5527 5519 5511 5504 5503 5503 5501 5502 5508 5518 5530 5530 5538 5548 5556 5572 5588 5597 5604 5612 5622 5633 5639 5646 5651 5651 5652 5650 5643 5646 5638 5640 5646 5652 5657 5658 5659 5650 5654
5536 5532 5527 5521 5513 5503 5492 5486 5486 5488 5486 5488 5495 5507 5521 5527 5532 5542 5552 5565 5577 5586 5595 5604 5613 5623 5632 5641 5646 5644 5640 5636 5640 5635 5643 5644 5650 5653 5657 5661 5659 5653 5655
5529 5524 5518 5509 5499 5486 5476 5468 5466 5467 5471 5478 5486 5498 5512 5521 5531 5537 5544 5560 5572 5582 5591 5601 5610 5619 5629 5637 5640 5632 5627 5630 5630 5634 5642 5645 5649 5652 5655 5656 5649 5651 5653
5520 5514 5504 5492 5479 5466 5457 5451 5448 5451 5461 5468 5480 5493 5505 5518 5527 5535 5543 5557 5569 5577 5590 5599 5603 5618 5621 5628 5629 5621 5620 5623 5625 5627 5632 5635 5637 5640 5644 5651 5651 5648 5644
5511 5502 5491 5477 5470 5462 5451 5444 5441 5447 5454 5464 5474 5485 5500 5517 5530 5538 5549 5557 5563 5569 5585 5593 5601 5606 5612 5613 5618 5618 5616 5615 5618 5628 5631 5632 5638 5637 5635 5638 5649 5647 5645
5502 5492 5480 5472 5467 5461 5454 5449 5447 5448 5456 5462 5472 5488 5506 5519 5530 5541 5549 5551 5565 5575 5582 5591 5592 5595 5599 5601 5602 5602 5608 5612 5617 5621 5622 5626 5631 5631 5635 5637 5638 5642 5645
5495 5485 5478 5470 5464 5460 5454 5451 5449 5453 5458 5466 5481 5499 5512 5520 5533 5542 5554 5554 5560 5575 5586 5587 5584 5586 5591 5589 5590 5597 5604 5606 5607 5608 5611 5615 5620 5627 5629 5631 5638 5640 5638
5488 5482 5478 5469 5461 5456 5451 5448 5451 5455 5462 5476 5496 5506 5515 5523 5535 5548 5554 5553 5562 5574 5573 5573 5574 5583 5588 5584 5587 5593 5600 5600 5600 5603 5604 5609 5617 5620 5624 5632 5632 5633 5630
5486 5484 5478 5468 5461 5454 5450 5449 5452 5458 5466 5480 5494 5509 5519 5528 5540 5549 5559 5565 5573 5574 5568 5565 5570 5582 5586 5588 5585 5589 5592 5595 5596 5598 5602 5608 5611 5614 5618 5623 5625 5625 5626
5486 5482 5479 5471 5464 5455 5454 5456 5459 5459 5471 5483 5496 5507 5521 5523 5531 5543 5553 5564 5568 5570 5567 5572 5578 5589 5589 5585 5584 5583 5587 5589 5591 5597 5598 5601 5607 5609 5614 5618 5623 5624 5621
5486 5482 5481 5476 5470 5462 5461 5460 5464 5472 5480 5489 5502 5517 5523 5521 5523 5539 5551 5563 5565 5560 5569 5571 5580 5583 5581 5582 5584 5588 5590 5592 5593 5594 5598 5599 5601 5607 5612 5616 5618 5619 5618
5488 5488 5485 5482 5477 5473 5471 5469 5469 5475 5487 5499 5505 5513 5520 5525 5530 5548 5554 5555 5556 5559 5571 5575 5578 5579 5580 5581 5581 5584 5586 5589 5595 5595 5597 5596 5600 5606 5612 5614 5615 5617 5620
5488 5486 5484 5488 5485 5480 5480 5479 5481 5485 5494 5502 5512 5518 5523 5533 5535 5544 5547 5554 5562 5562 5564 5573 5578 5577 5578 5579 5579 5582 5588 5590 5593 5597 5599 5600 5605 5606 5607 5611 5613 5614 5614
5486 5483 5482 5485 5488 5488 5486 5487 5488 5491 5496 5505 5508 5512 5520 5532 5538 5542 5545 5550 5558 5560 5565 5569 5572 5575 5577 5579 5577 5583 5590 5591 5588 5593 5597 5599 5602 5606 5609 5609 5608 5608 5609
5480 5481 5480 5481 5478 5481 5487 5487 5491 5493 5495 5501 5510 5514 5510 5526 5535 5542 5545 5551 5553 5554 5560 5566 5567 5569 5570 5573 5576 5581 5583 5587 5588 5590 5594 5597 5600 5602 5605 5605 5604 5603 5610
5472 5474 5475 5475 5474 5474 5475 5480 5485 5491 5494 5497 5502 5510 5514 5524 5531 5538 5542 5545 5549 5551 5554 5557 5561 5564 5564 5568 5570 5574 5580 5579 5582 5588 5589 5591 5595 5595 5596 5600 5601 5603 5604
5461 5464 5466 5468 5468 5469 5472 5472 5475 5478 5483 5495 5500 5505 5508 5511 5522 5532 5539 5544 5546 5548 5555 5562 5561 5561 5564 5569 5572 5573 5577 5580 5582 5585 5586 5587 5590 5591 5593 5595 5598 5599 5601
5450 5452 5454 5456 5458 5461 5462 5465 5467 5469 5472 5480 5486 5493 5499 5506 5508 5512 5518 5527 5536 5540 5546 5549 5555 5560 5562 5563 5568 5571 5573 5577 5581 5583 5585 5587 5588 5587 5589 5592 5596 5598 5600
5440 5440 5441 5443 5445 5447 5452 5455 5458 5461 5465 5468 5471 5477 5485 5493 5500 5506 5511 5514 5519 5524 5532 5542 5550 5554 5554 5557 5558 5567 5570 5571 5578 5580 5581 5583 5585 5587 5589 5591 5594 5598 5599
5430 5431 5431 5432 5433 5434 5435 5440 5444 5446 5450 5455 5460 5465 5469 5474 5481 5488 5499 5502 5508 5516 5522 5530 5536 5542 5546 5548 5552 5558 5564 5566 5571 5574 5576 5579 5582 5585 5588 5592 5595 5599 5600